Content
SEND FEEDBACK

Daily
Averages
Monthly
Summary
Czech Republic

PRAGUE, CZECH REPUBLIC


Home > Europe > Czech Republic
Elevation: 1184 feet     Latitude: 50 06N     Longitude: 014 15E

WEATHER
 
SELECT A DAY
Number of Records: 320,132;   Date Range: 7/1/96 - 7/20/14
 
SHARE

PRINT THIS DATA

[ ← Previous Day ]
WEATHER ALMANAC - FEBRUARY 16, 2014
[ Next Day → ]
[ °C ]   °F
Weather ElementAverageHighLow
Temperature42 °F44.6 °F (10:00 am)37.4 °F (10:00 pm)
Dewpoint34.6 °F36 °F (3:00 am)33.8 °F (10:00 am)
Humidity72.8 %87 % (10:00 pm)57 % (1:00 pm)
Barometer29.86 in29.98 in (10:00 pm)29.74 in (12:00 am)
Wind Speed13.6 mph20.7 mph (12:30 pm)
Weather ElementAverage
Visibility17.1 mi
Wind DirectionSSW (217.2 °)

Weather ElementTotal
Precipitation---
Heating Degree Days24 (Base 65)
Averaged from 71 records on February 16, 2014
WEATHER CONDITIONS BREAKOUT
WIND DIRECTION BREAKOUT
WEATHER BY HOUR - FEBRUARY 16, 2014
[ °C ]   °F
Local TimeTemperatureDewpointHumidityBarometerVisibilityWind DirectionWind SpeedGust SpeedPrecipitationEventsConditions
12:00 AM41.0 °F35.6 °F81 %29.74 inSouth (190°)11.5 mphClear
12:30 AM41.0 °F35.6 °F81 %29.74 inSSW (200°)9.2 mphClear
1:00 AM42.0 °F35.0 °F68 %29.80 in19.0 miSSW (200°)11.2 mphOvercast
1:00 AM41.0 °F35.6 °F81 %29.77 inSouth (190°)9.2 mphClear
1:30 AM41.0 °F35.6 °F81 %29.77 in6.2 miSSW (210°)12.7 mphRainLight Rain
2:00 AM41.0 °F35.0 °F73 %29.82 in19.0 miSSW (210°)13.4 mphRainLight Rain
2:00 AM41.0 °F35.6 °F81 %29.77 inSSW (200°)11.5 mphClear
2:30 AM42.8 °F35.6 °F76 %29.77 inSW (230°)15.0 mphClear
3:00 AM41.0 °F35.6 °F81 %29.77 inSW (220°)16.1 mphClear
3:00 AM42.0 °F36.0 °F74 %29.80 in19.0 miSW (230°)17.9 mphMostly Cloudy
3:30 AM42.8 °F35.6 °F76 %29.77 in6.2 miSW (220°)19.6 mphPartly Cloudy
4:00 AM41.0 °F36.0 °F76 %29.83 in19.0 miSW (230°)15.7 mphPartly Cloudy
4:00 AM41.0 °F35.6 °F81 %29.77 in6.2 miSW (230°)17.3 mphScattered Clouds
4:30 AM42.8 °F35.6 °F76 %29.77 in6.2 miSW (230°)16.1 mphPartly Cloudy
5:00 AM40.0 °F35.0 °F76 %29.83 in19.0 miSW (220°)11.2 mphMostly Cloudy
5:00 AM41.0 °F35.6 °F81 %29.80 in6.2 miSSW (210°)13.8 mphMostly Cloudy
5:30 AM41.0 °F35.6 °F81 %29.80 in6.2 miSW (220°)12.7 mphMostly Cloudy
6:00 AM41.0 °F35.6 °F81 %29.80 in6.2 miSSW (210°)13.8 mphScattered Clouds
6:00 AM40.0 °F35.0 °F75 %29.85 in19.0 miSSW (210°)13.4 mphPartly Cloudy
6:30 AM41.0 °F35.6 °F81 %29.80 in6.2 miSSW (210°)13.8 mphMostly Cloudy
7:00 AM42.0 °F35.0 °F70 %29.85 in19.0 miSSW (200°)11.2 mphPartly Cloudy
7:00 AM41.0 °F35.6 °F81 %29.80 in6.2 miSSW (210°)12.7 mphMostly Cloudy
7:30 AM41.0 °F35.6 °F81 %29.83 in6.2 miSSW (210°)12.7 mphMostly Cloudy
8:00 AM42.0 °F35.0 °F67 %29.85 in37.0 miSSW (210°)13.4 mphPartly Cloudy
8:00 AM42.8 °F35.6 °F76 %29.80 in6.2 miSSW (210°)13.8 mphScattered Clouds
8:30 AM42.8 °F35.6 °F76 %29.83 in6.2 miSSW (210°)15.0 mphMostly Cloudy
9:00 AM42.8 °F35.6 °F76 %29.83 in6.2 miSW (220°)16.1 mphMostly Cloudy
9:00 AM43.0 °F35.0 °F64 %29.88 in47.0 miSW (230°)17.9 mphMostly Cloudy
9:30 AM42.8 °F35.6 °F76 %29.83 in6.2 miSSW (210°)17.3 mphMostly Cloudy
10:00 AM44.0 °F35.0 °F59 %29.89 in47.0 miSW (220°)13.4 mphMostly Cloudy
10:00 AM44.6 °F33.8 °F66 %29.86 in6.2 miSW (220°)15.0 mphMostly Cloudy
10:30 AM44.6 °F33.8 °F66 %29.86 in6.2 miSW (220°)16.1 mphMostly Cloudy
11:00 AM44.0 °F34.0 °F58 %29.89 in47.0 miSW (230°)13.4 mphMostly Cloudy
11:00 AM44.6 °F33.8 °F66 %29.86 in6.2 miSW (220°)17.3 mphMostly Cloudy
11:30 AM44.6 °F33.8 °F66 %29.86 in6.2 miSW (230°)17.3 mphMostly Cloudy
12:00 PM44.6 °F33.8 °F66 %29.86 in6.2 miSW (230°)17.3 mphMostly Cloudy
12:00 PM44.0 °F34.0 °F58 %29.90 in47.0 miSW (230°)15.7 mphMostly Cloudy
12:30 PM44.6 °F33.8 °F66 %29.86 in6.2 miSW (230°)20.7 mphOvercast
1:00 PM44.0 °F34.0 °F57 %29.90 in47.0 miSW (230°)15.7 mphRainLight Rain
1:00 PM44.6 °F33.8 °F66 %29.86 in6.2 miSW (220°)20.7 mphOvercast
1:30 PM44.6 °F33.8 °F66 %29.86 in6.2 miSW (230°)19.6 mphOvercast
2:00 PM44.0 °F34.0 °F58 %29.90 in47.0 miSW (230°)17.9 mphOvercast
2:00 PM44.6 °F33.8 °F66 %29.86 in6.2 miSW (230°)19.6 mphOvercast
2:30 PM44.6 °F33.8 °F66 %29.86 in6.2 miSW (220°)16.1 mphOvercast
3:00 PM44.6 °F33.8 °F66 %29.86 in6.2 miSW (220°)16.1 mphOvercast
3:00 PM44.0 °F35.0 °F59 %29.89 in44.0 miSW (230°)15.7 mphOvercast
3:30 PM44.6 °F33.8 °F66 %29.86 in6.2 miSW (220°)13.8 mphOvercast
4:00 PM44.0 °F34.0 °F57 %29.90 in44.0 miSW (230°)13.4 mphMostly Cloudy
4:00 PM44.6 °F33.8 °F66 %29.86 in6.2 miSW (220°)12.7 mphMostly Cloudy
4:30 PM44.6 °F33.8 °F66 %29.86 in6.2 miSSW (210°)13.8 mphMostly Cloudy
5:00 PM43.0 °F34.0 °F62 %29.91 in44.0 miSW (230°)13.4 mphMostly Cloudy
5:00 PM42.8 °F33.8 °F70 %29.86 in6.2 miSW (220°)13.8 mphMostly Cloudy
5:30 PM42.8 °F35.6 °F76 %29.89 in6.2 miSW (220°)12.7 mphMostly Cloudy
6:00 PM42.8 °F33.8 °F70 %29.89 in6.2 miSSW (210°)10.4 mphMostly Cloudy
6:00 PM43.0 °F35.0 °F63 %29.93 in44.0 miSW (220°)13.4 mphMostly Cloudy
6:30 PM42.8 °F35.6 °F76 %29.89 in6.2 miSW (230°)11.5 mphMostly Cloudy
7:00 PM41.0 °F35.0 °F71 %29.95 in44.0 miSW (220°)8.9 mphPartly Cloudy
7:00 PM41.0 °F33.8 °F76 %29.92 in6.2 miSW (220°)10.4 mphScattered Clouds
7:30 PM41.0 °F33.8 °F76 %29.92 in6.2 miSW (230°)11.5 mphScattered Clouds
8:00 PM40.0 °F34.0 °F72 %29.96 in37.0 miSW (230°)8.9 mphScattered Clouds
8:00 PM41.0 °F33.8 °F76 %29.92 in6.2 miSW (220°)11.5 mphPartly Cloudy
8:30 PM39.2 °F33.8 °F81 %29.92 inSSW (200°)9.2 mphClear
9:00 PM39.2 °F33.8 °F81 %29.92 inSSW (200°)11.5 mphClear
9:00 PM39.0 °F34.0 °F76 %29.96 in37.0 miSSW (210°)8.9 mphScattered Clouds
9:30 PM39.2 °F33.8 °F81 %29.92 inSouth (190°)8.1 mphClear
10:00 PM38.0 °F34.0 °F78 %29.98 in37.0 miSSW (200°)8.9 mphPartly Cloudy
10:00 PM37.4 °F33.8 °F87 %29.92 in6.2 miSSW (200°)10.4 mphPartly Cloudy
10:30 PM37.4 °F33.8 °F87 %29.92 in6.2 miSW (220°)11.5 mphScattered Clouds
11:00 PM38.0 °F34.0 °F81 %29.98 in37.0 miSSW (210°)6.7 mphPartly Cloudy
11:00 PM37.4 °F33.8 °F87 %29.92 in6.2 miSSW (210°)10.4 mphScattered Clouds
11:30 PM37.4 °F33.8 °F87 %29.92 in6.2 miSW (230°)9.2 mphScattered Clouds
Hourly data recorded from LKPR, located miles away from Prague, Czech Republic







STORIES FROM OUR PARTNERS